Theta_e
285 285 285 285 285 285 284 283 283 282 283 282 282 281 281 281 281 280 281 281 281 281 283 283 282 282 282 282 283 283 283 283 283 284 284 284 285 288 293 295 296 298 300 302 303 304 305 306 308 309 310 311 311 311 311 311 311 312 312 312 313 313 313 313 314 314 314 315 315 316 316 316 316 316 316 315 315 316 315 315 316 318 318 318 317
284 284 284 284 284 284 283 282 282 282 282 281 282 281 280 280 280 280 280 280 280 281 283 281 281 282 282 282 282 282 282 282 283 283 284 284 284 286 291 293 294 296 297 299 300 302 303 304 306 308 308 309 310 310 311 310 311 311 312 312 311 312 312 312 313 314 314 315 314 314 315 315 313 314 315 315 316 315 315 316 315 314 315 317 318
284 283 283 283 282 282 281 281 281 281 281 281 281 282 280 280 280 280 280 280 280 281 281 280 280 281 282 281 281 282 282 282 282 283 283 283 283 284 287 292 293 294 295 297 299 300 301 302 304 305 307 308 309 309 310 310 310 311 310 311 311 311 311 310 312 313 313 313 314 314 315 314 314 314 314 314 314 315 315 314 315 315 315 315 315
283 282 283 281 281 281 280 280 280 280 281 281 281 281 280 280 280 281 280 280 280 280 281 280 280 280 280 280 281 281 282 282 282 282 282 283 283 283 284 287 290 292 294 295 297 299 300 301 302 303 306 307 308 309 309 310 309 310 310 310 311 312 311 310 310 311 312 313 313 314 314 314 313 313 313 314 314 313 314 315 315 314 314 315 315
282 282 283 280 280 280 280 280 280 280 281 281 280 280 279 279 279 281 280 280 279 279 281 280 279 279 280 280 280 280 281 281 281 281 282 282 282 282 282 285 285 290 292 293 295 297 299 300 301 302 303 305 307 307 308 308 309 309 309 310 311 311 310 310 309 309 311 312 312 312 313 313 313 312 313 313 313 313 313 313 314 315 314 313 313
282 281 280 279 280 279 279 279 279 280 280 280 279 279 279 279 279 279 281 279 278 279 279 278 279 279 279 279 279 279 280 280 280 281 281 281 281 281 282 282 283 283 285 291 292 294 296 299 300 301 302 304 306 307 307 307 307 308 308 308 309 309 309 309 309 309 309 311 312 312 312 313 314 313 310 310 311 312 312 312 313 313 313 314 313
282 280 280 279 279 279 279 279 279 280 279 279 279 279 279 278 279 278 278 278 278 279 279 278 278 278 278 279 278 279 279 279 280 280 280 280 281 281 281 281 282 282 285 284 288 291 295 298 300 301 302 303 304 305 306 306 306 307 307 308 307 308 309 308 308 308 308 309 310 310 310 311 310 312 312 312 312 313 312 311 311 311 312 313 313
281 280 279 279 279 278 278 279 279 279 279 279 279 278 278 278 278 278 277 277 278 277 278 277 277 277 278 278 278 280 279 279 279 279 279 280 280 280 281 281 282 283 286 282 283 286 292 296 297 300 301 301 301 303 304 304 304 305 306 307 306 306 307 307 307 307 307 308 309 309 309 309 310 310 311 311 311 311 311 312 312 312 313 313 313
280 280 279 279 279 278 278 278 279 278 278 278 277 279 278 278 277 279 278 276 276 276 276 277 276 277 277 277 278 279 278 278 278 279 281 279 279 280 281 281 284 285 281 282 282 282 286 292 293 295 298 300 300 301 301 301 302 304 305 305 305 305 306 306 307 307 307 307 308 308 308 309 309 309 309 309 309 310 310 311 311 311 312 313 313
280 279 278 280 279 278 278 278 278 278 278 277 277 278 278 277 276 277 278 276 276 275 275 276 276 276 277 277 277 278 277 277 279 283 279 279 278 279 280 280 280 280 281 281 281 281 281 284 289 289 291 294 296 299 301 302 302 304 304 305 305 305 305 305 305 306 306 306 306 307 308 308 309 308 308 308 309 310 310 311 311 310 310 311 312
279 279 278 279 278 278 277 278 278 277 277 276 277 278 278 276 275 276 277 276 276 275 275 275 276 276 276 277 277 277 277 278 280 279 278 277 280 282 280 280 280 280 280 280 280 280 280 280 280 280 281 290 292 294 297 299 299 302 304 303 303 304 303 303 303 304 305 305 306 306 306 307 307 308 308 308 308 308 309 310 310 310 310 310 311
279 278 278 279 278 277 277 277 277 277 276 276 276 276 275 275 275 276 275 275 276 275 275 275 275 275 276 276 276 277 276 280 278 277 278 277 278 279 278 280 279 279 279 279 279 279 279 279 282 279 280 283 288 290 292 294 294 299 302 302 302 302 302 302 303 304 304 305 305 306 306 306 307 307 307 308 309 308 308 309 310 310 310 310 311
280 278 278 278 278 277 276 276 276 277 276 276 276 276 276 275 275 275 275 273 274 275 275 275 274 273 274 274 275 277 280 279 276 277 277 277 278 277 278 278 278 278 278 278 278 278 279 279 279 279 279 279 281 286 288 290 291 295 298 299 301 301 302 302 303 304 304 304 304 305 306 306 306 307 307 307 308 308 308 310 310 310 311 311 312
279 278 279 277 276 276 276 276 276 276 277 277 276 277 275 274 274 273 275 274 273 274 274 274 272 271 271 272 274 275 278 276 276 276 277 277 277 277 279 277 277 277 278 277 277 278 278 278 278 278 278 279 279 279 280 282 284 292 293 295 297 298 299 300 301 302 302 302 303 304 305 306 307 307 307 307 307 308 308 308 309 310 309 310 310
277 278 277 277 276 276 276 275 275 276 275 275 274 274 274 274 274 273 272 274 274 275 274 274 270 272 273 272 271 271 276 274 275 276 276 276 276 276 279 277 277 277 277 277 277 277 277 278 278 278 278 278 278 278 279 282 285 290 291 292 294 296 298 299 300 302 302 302 302 303 303 304 305 306 307 307 307 307 306 307 308 309 309 309 310
277 277 277 276 276 275 275 275 275 276 275 274 273 273 273 273 273 274 273 271 272 272 275 274 273 273 268 270 270 271 270 272 272 274 275 275 276 276 277 276 276 277 277 276 276 277 277 277 277 277 278 278 278 278 279 279 285 288 290 291 292 295 297 298 300 301 302 303 303 303 304 304 305 306 306 306 307 308 308 308 309 308 309 309 310
276 276 277 276 275 275 275 274 274 274 276 274 273 273 273 273 273 273 272 272 271 272 273 274 273 276 271 270 270 270 270 270 271 272 274 274 275 275 278 275 275 276 276 276 276 276 277 277 277 277 277 277 277 278 278 278 279 284 284 290 295 296 297 298 300 301 302 302 302 303 303 304 305 305 305 306 306 307 307 308 307 308 308 309 310
276 276 275 276 275 275 274 274 274 274 276 273 273 273 273 273 273 273 272 273 272 271 271 274 274 274 274 273 272 269 269 270 270 268 274 274 274 275 275 275 275 275 275 275 275 275 277 276 277 276 276 277 277 277 277 278 282 280 281 286 295 296 298 299 300 300 301 301 301 302 302 303 304 305 305 306 306 307 307 308 308 309 308 308 308
275 275 275 275 275 275 274 274 274 273 276 273 272 272 272 273 274 273 272 274 272 270 271 271 272 273 273 273 273 274 273 270 268 270 267 272 273 274 274 274 274 274 275 275 275 275 275 277 276 276 276 277 277 277 277 278 281 283 288 292 294 295 296 298 299 301 301 301 300 301 301 302 303 304 304 305 305 305 305 305 306 307 307 308 309
274 274 274 274 275 274 273 273 273 273 276 272 272 273 273 273 274 273 273 273 272 271 271 271 270 270 273 272 272 273 272 272 272 270 269 267 270 273 274 274 274 274 275 274 274 274 275 275 275 276 276 276 276 276 276 277 276 277 281 289 293 294 295 296 297 299 300 301 302 301 302 301 302 303 303 304 304 305 305 306 306 306 307 307 308
274 274 274 274 275 274 273 273 273 273 275 273 272 272 272 272 272 272 272 272 272 273 272 271 271 270 270 271 271 271 271 271 272 272 270 268 268 269 270 272 273 273 273 274 274 274 275 275 276 277 277 276 276 276 276 276 276 277 283 289 291 293 294 295 296 298 299 300 300 300 300 301 301 302 302 303 303 304 304 305 305 306 306 307 307
273 273 273 273 273 273 273 273 272 273 274 272 272 272 272 272 272 272 272 271 272 272 272 271 272 271 271 271 270 270 270 270 270 270 270 270 267 268 269 269 268 271 273 273 274 274 274 275 274 274 275 275 275 276 275 275 277 278 281 287 289 291 292 293 295 296 297 298 299 299 299 300 300 301 301 302 302 303 303 304 304 305 306 306 307
273 273 273 273 273 273 273 273 273 273 273 272 271 272 272 272 272 272 272 271 271 271 272 272 272 271 271 271 270 270 268 268 268 269 268 268 268 268 269 270 269 269 272 273 274 274 274 274 274 274 274 275 275 276 275 275 278 279 282 283 286 289 291 292 294 295 296 297 297 297 298 299 299 300 300 301 301 302 303 303 304 305 305 306 306
272 272 272 272 273 272 273 272 272 271 271 272 272 272 272 272 271 272 271 271 271 272 271 270 270 271 270 271 270 271 270 270 270 270 269 268 268 268 268 270 270 270 272 272 273 273 273 274 274 274 274 274 275 276 276 276 276 280 280 282 284 287 289 291 292 294 295 296 296 296 297 298 299 299 299 300 301 301 302 302 303 304 304 305 305
271 271 272 272 272 271 272 271 271 271 272 272 272 272 271 271 271 271 271 271 271 271 270 270 270 270 270 271 271 271 270 271 271 270 271 270 270 268 269 270 268 269 271 272 271 273 274 273 274 274 274 274 276 275 275 275 275 279 281 280 283 284 287 289 291 293 294 294 295 296 296 297 298 299 299 299 300 300 301 301 302 303 303 303 303
271 271 272 272 272 271 272 271 271 271 272 271 271 271 271 271 271 271 270 271 271 271 271 271 271 271 272 271 271 271 271 272 272 271 271 270 269 269 269 269 270 269 271 271 272 270 272 274 274 274 274 274 274 274 275 275 276 279 281 279 280 282 284 287 289 291 292 293 294 295 296 297 297 298 298 298 299 299 299 300 300 301 301 301 301
271 272 272 271 271 271 271 271 271 271 271 271 271 271 271 271 271 271 271 271 271 271 271 271 271 272 272 272 273 273 272 273 272 272 272 271 271 270 269 267 268 269 269 270 270 270 270 272 274 273 274 275 274 274 275 275 277 280 280 278 276 281 283 284 287 289 291 292 293 294 295 296 297 297 297 297 297 298 298 299 299 300 300 301 301
271 271 271 271 271 271 271 270 271 271 271 271 270 270 271 270 271 270 270 272 271 271 272 272 272 273 273 273 273 273 273 274 274 273 273 273 272 272 271 270 267 265 268 268 269 270 272 271 273 273 273 274 275 275 277 278 276 279 280 277 276 277 281 283 286 288 290 291 292 293 294 295 295 296 297 297 297 297 298 298 299 299 300 300 302
271 271 271 271 270 271 270 270 270 271 270 270 271 270 271 270 270 270 270 271 271 272 272 273 273 273 273 273 273 273 274 274 274 274 274 274 274 273 272 271 270 267 266 266 268 269 271 272 271 273 274 274 274 275 275 274 277 279 277 277 276 275 280 283 286 287 288 289 290 291 292 293 294 296 296 296 297 297 298 298 298 299 300 300 301
271 271 271 270 270 271 270 270 270 270 270 270 270 270 270 270 270 270 271 271 272 272 273 273 273 274 274 273 273 273 274 274 274 274 274 274 274 273 273 273 272 269 269 267 267 270 270 272 273 272 274 274 275 275 275 275 279 279 277 276 276 276 281 283 285 286 287 288 288 288 291 292 293 294 295 296 297 296 297 298 298 298 299 300 302
270 270 270 270 270 270 270 270 270 270 270 270 270 270 270 269 270 270 271 272 272 272 273 273 274 274 273 273 273 273 274 274 274 275 275 275 274 274 273 273 273 272 271 270 267 271 273 271 273 274 273 274 275 275 275 275 277 278 277 276 276 279 282 281 283 284 285 286 287 287 288 290 291 293 293 295 296 296 297 297 297 298 298 298 297
270 270 269 269 270 269 269 270 270 270 270 270 270 270 270 270 270 270 271 271 272 272 272 273 274 274 273 273 273 273 274 274 274 275 275 275 276 275 274 274 274 273 273 271 269 269 273 273 273 274 274 274 275 274 274 275 277 280 277 276 276 280 278 277 280 282 283 285 286 287 287 288 289 291 292 292 294 295 296 296 296 296 296 296 295
269 269 269 269 269 269 269 270 269 269 269 269 270 270 269 269 270 271 272 272 272 272 273 273 274 274 274 273 274 274 275 275 275 275 275 275 276 275 275 275 274 274 273 272 270 271 273 275 275 275 275 275 274 275 274 274 275 275 278 276 276 276 276 276 276 280 282 284 285 286 286 287 288 289 290 291 291 293 292 293 293 293 292 292 292
269 269 269 269 269 269 269 269 269 269 269 269 269 269 269 270 271 271 271 272 272 272 273 273 273 274 274 274 274 275 275 274 275 275 275 276 276 275 275 275 275 274 275 273 272 272 271 274 275 276 275 275 273 275 274 274 275 276 276 276 277 276 276 276 276 276 281 283 284 285 286 286 287 287 288 288 288 289 289 289 289 289 289 289 289
269 269 269 269 269 269 269 269 269 269 269 269 269 269 270 271 271 272 272 272 272 272 273 273 274 274 274 274 274 274 274 273 274 275 275 275 276 276 275 276 275 275 276 275 273 272 272 273 275 275 275 275 275 275 275 276 276 276 276 276 277 278 278 278 277 277 281 283 284 285 286 286 286 286 286 286 286 286 287 287 287 287 288 288 288
268 269 269 269 269 269 268 268 269 269 269 269 269 270 270 271 271 272 272 273 273 273 273 274 274 274 274 273 274 274 274 274 274 274 275 276 276 276 276 276 276 276 276 276 276 274 273 272 274 274 275 275 276 277 277 277 276 276 277 277 278 278 278 279 278 277 279 283 284 284 284 284 285 285 285 285 285 286 286 286 286 286 286 287 287
268 268 268 268 268 268 268 268 268 268 269 269 269 270 271 272 272 272 272 273 273 274 274 274 275 274 274 274 274 275 275 274 274 274 275 275 276 276 276 276 276 276 276 276 276 276 274 273 274 275 276 276 277 277 277 275 276 277 278 278 278 278 279 279 278 279 281 282 282 282 283 283 283 284 284 285 285 285 285 286 286 286 286 286 286
267 268 268 268 268 268 268 268 268 268 269 269 270 271 271 272 272 273 273 273 274 275 275 274 274 275 275 274 275 275 274 274 274 274 275 276 276 276 276 276 276 276 276 276 276 275 275 274 274 274 276 275 276 276 276 277 276 276 277 278 278 278 277 276 277 278 278 278 277 278 280 281 282 283 284 284 285 285 285 285 285 285 285 285 285
267 267 267 267 268 268 268 268 268 268 268 269 270 270 271 272 272 275 277 278 276 275 275 275 275 275 275 275 275 275 275 275 275 275 276 275 275 275 276 276 276 276 275 275 276 275 275 274 275 275 275 276 276 275 277 278 278 277 275 274 274 276 276 276 275 277 277 278 279 281 281 281 282 281 283 284 284 285 285 284 284 284 284 284 285
266 266 266 267 267 267 267 268 268 268 268 269 270 271 272 274 277 277 278 276 275 274 274 275 275 275 275 275 275 276 276 276 276 276 276 275 275 275 276 276 276 276 275 276 275 275 275 275 274 274 275 275 276 277 277 276 275 275 276 274 272 273 274 275 276 276 277 278 277 277 279 280 280 280 282 283 283 283 283 283 283 283 283 284 284
267 266 267 267 266 267 267 267 267 268 268 269 270 271 276 277 278 278 277 275 274 274 274 275 275 275 275 276 276 276 276 277 278 278 277 277 276 275 276 276 276 276 276 276 275 275 274 274 273 274 273 273 273 273 273 273 273 273 274 275 273 274 275 275 276 277 278 277 276 276 277 278 278 278 277 277 277 279 279 281 282 282 282 283 284
266 266 266 267 267 267 267 267 267 268 268 269 272 278 279 278 278 278 277 275 274 274 274 274 274 275 276 276 276 277 277 277 277 277 277 278 279 277 276 276 276 276 275 274 274 273 272 271 271 271 270 271 272 273 273 273 274 275 274 274 273 274 274 274 274 275 277 276 275 275 276 278 277 276 276 275 276 278 277 277 277 278 280 283 283
266 266 266 266 266 267 267 267 267 267 268 269 275 279 279 280 279 278 276 275 275 274 274 274 274 275 275 275 275 275 275 275 275 276 277 278 278 279 279 280 279 276 274 273 272 272 271 271 271 271 271 271 272 273 273 273 274 274 273 273 273 273 272 270 269 273 277 277 275 274 274 276 276 274 275 275 275 276 276 276 280 281 282 283 284
266 266 266 266 266 267 267 267 267 267 268 272 277 278 279 280 280 278 276 275 275 274 274 274 275 275 274 274 274 274 274 274 274 274 275 277 278 279 279 278 278 278 277 274 272 271 271 271 270 271 271 271 271 272 272 272 272 272 273 273 272 272 271 270 271 270 275 277 274 272 272 275 275 275 274 275 275 276 276 279 281 282 283 283 284
266 266 266 266 266 267 267 266 267 267 267 272 277 278 279 279 280 279 276 276 275 274 274 275 275 274 274 273 273 273 273 275 274 274 274 274 277 278 278 277 276 276 276 277 277 274 274 273 271 270 270 270 270 271 272 271 273 271 271 271 272 272 272 271 271 272 273 275 273 271 271 273 274 273 273 274 275 275 275 278 280 281 282 283 283
265 265 266 266 266 266 266 266 267 267 268 273 277 278 278 279 280 279 276 276 275 275 274 275 275 274 273 273 272 271 273 273 273 273 273 275 276 275 274 274 273 273 275 275 276 276 276 273 271 270 271 271 270 271 272 273 271 271 271 270 272 271 271 270 272 272 273 274 271 270 269 270 273 272 272 273 274 275 275 278 281 282 282 283 283
264 265 265 265 266 266 266 267 267 267 268 275 277 278 278 279 280 278 276 275 275 275 275 275 275 274 273 272 272 272 272 272 272 274 275 276 275 274 273 272 272 272 272 273 274 274 273 272 271 271 271 271 271 272 273 274 273 273 272 271 271 271 271 272 271 271 271 272 272 270 267 270 273 272 272 273 274 274 275 278 280 281 282 282 282
265 265 265 265 265 265 266 267 267 267 268 275 276 277 278 279 279 276 276 275 274 274 274 274 274 273 273 272 272 272 272 271 273 277 278 276 274 273 272 271 271 272 272 275 276 275 273 272 272 271 271 272 274 274 274 274 273 273 273 273 272 271 269 266 265 268 268 271 272 270 268 269 272 270 271 273 274 273 274 274 278 280 280 281 282
264 264 264 264 265 265 266 266 267 267 268 272 276 277 278 279 278 276 275 274 274 274 274 274 272 272 271 272 272 272 271 271 274 278 278 277 273 272 270 270 270 271 272 273 274 273 273 273 273 274 274 274 275 275 275 275 274 274 271 269 267 268 266 264 265 266 267 269 270 270 269 267 270 270 270 272 272 272 272 273 274 278 280 281 281
263 263 263 264 265 266 266 266 267 267 268 271 275 277 278 278 278 276 275 274 273 273 273 273 272 271 271 273 273 271 271 271 276 278 278 275 272 271 269 269 269 269 270 271 269 268 271 271 271 272 272 273 273 273 273 274 274 273 269 266 267 267 266 265 264 265 266 268 269 271 269 268 270 270 269 270 271 272 272 273 274 275 278 278 280
262 262 263 263 264 265 266 267 268 268 268 270 274 276 277 278 277 276 275 274 273 273 272 271 271 270 270 272 273 272 272 274 277 277 277 275 272 270 269 269 269 268 269 268 266 264 264 265 265 266 267 269 268 267 268 272 273 272 269 268 269 267 266 265 265 265 264 265 269 272 267 267 268 270 269 268 267 270 273 272 272 273 273 274 275
Wind_Speed
6 6 5 6 6 6 5 5 5 5 5 6 5 6 6 6 6 6 6 6 6 6 6 6 5 5 6 5 5 5 6 6 6 6 5 5 5 8 16 17 17 17 17 17 18 18 17 17 16 16 16 16 15 15 15 14 14 14 14 12 10 10 10 11 12 12 12 11 11 12 10 10 10 10 9 7 6 6 4 3 3 5 7 7 8
5 5 6 6 6 6 6 6 6 5 5 6 5 5 6 6 6 6 7 7 6 6 7 6 6 6 5 6 6 5 5 5 6 6 5 5 6 6 13 16 17 17 17 17 17 17 17 17 16 16 16 16 15 15 15 14 14 14 14 14 11 10 10 9 11 13 12 11 13 12 11 10 8 8 9 9 9 10 10 9 7 4 3 5 6
6 6 5 6 5 6 6 5 6 6 5 6 5 6 5 6 6 6 7 7 6 6 6 6 6 6 5 5 6 5 5 5 5 6 6 6 5 5 7 14 16 17 17 17 17 17 17 16 16 16 15 15 15 14 15 15 14 14 14 13 14 12 10 8 10 12 12 12 12 13 13 13 12 11 11 8 10 10 8 7 8 8 7 5 5
6 7 6 6 6 6 6 6 6 6 6 6 6 6 6 6 6 5 6 5 6 6 5 5 6 6 5 6 6 6 6 6 6 6 6 6 6 6 5 7 14 17 17 17 16 16 16 16 16 15 15 15 14 14 14 14 14 14 15 14 14 15 13 9 10 11 12 12 13 13 11 11 10 12 9 10 9 7 8 9 11 9 9 9 8
6 7 6 6 6 6 6 6 6 6 6 6 6 5 5 6 6 6 6 6 6 6 6 6 6 6 6 6 6 6 6 6 6 6 6 5 6 6 6 6 5 12 15 16 16 16 15 15 15 14 14 14 14 14 14 13 13 14 14 13 13 14 14 11 11 9 11 12 12 13 14 11 8 8 9 12 12 12 11 9 10 11 12 9 8
6 6 6 6 6 6 6 7 7 6 6 6 6 5 6 6 7 6 7 7 7 7 7 8 7 6 6 6 6 6 6 6 6 5 5 5 5 5 5 5 5 5 6 12 16 16 16 14 14 13 13 13 13 14 14 14 14 15 14 14 13 14 13 11 9 10 11 12 12 11 10 13 16 13 4 0 3 6 9 10 12 13 12 11 12
6 6 6 6 6 6 6 6 7 6 6 6 6 6 6 6 6 7 6 6 6 6 6 7 8 9 8 7 7 7 6 6 6 5 5 5 5 5 5 5 5 5 5 5 9 15 15 14 11 10 11 11 11 13 14 13 14 14 14 13 9 9 11 10 10 11 10 13 12 10 13 13 10 12 14 13 14 14 11 12 12 14 14 14 12
6 6 6 6 5 6 6 6 7 6 6 6 6 6 6 6 6 6 8 8 8 8 6 7 8 9 8 7 7 7 7 6 5 5 5 5 5 4 4 4 5 4 6 5 6 8 17 17 16 14 10 8 9 12 13 12 12 14 15 15 13 13 12 10 10 11 11 13 14 15 13 11 10 11 13 13 10 12 13 13 12 12 12 11 15
6 7 6 6 6 6 6 7 6 6 6 6 6 6 6 7 7 6 5 7 7 9 8 8 9 9 8 8 8 7 6 5 5 5 4 4 4 4 3 5 4 6 4 6 6 6 13 18 19 19 18 17 15 11 8 8 10 13 14 13 12 11 11 10 10 11 12 12 14 13 11 11 14 14 10 9 10 11 11 11 11 12 14 15 17
6 7 5 6 6 5 6 7 7 6 6 6 6 5 5 6 7 7 6 6 7 8 9 10 9 9 9 8 8 7 6 4 4 3 3 5 4 4 4 4 4 5 5 6 6 7 7 12 18 18 20 19 18 17 12 14 15 13 11 10 13 13 11 9 10 12 12 13 13 13 14 15 15 12 12 12 12 13 14 15 16 16 14 13 13
6 7 5 6 5 6 6 6 6 6 6 6 6 6 6 7 7 8 6 6 6 6 8 10 10 9 8 8 7 8 5 3 1 3 6 4 4 5 4 5 5 5 6 6 6 6 7 8 7 7 9 19 18 18 17 18 18 17 15 12 13 9 8 8 10 11 12 12 13 14 14 14 13 14 14 13 13 13 15 15 14 14 15 17 18
6 7 6 6 6 6 6 6 7 6 6 7 7 7 9 10 9 9 8 7 5 5 8 9 9 7 9 6 6 7 5 1 4 5 7 5 5 5 5 4 5 5 6 6 6 6 6 7 7 7 7 11 18 17 18 18 18 17 15 15 14 11 9 10 10 12 12 13 14 14 15 14 14 15 14 14 14 15 15 15 17 17 17 17 16
7 6 6 6 5 5 5 6 6 6 5 6 6 7 8 7 7 7 9 9 7 6 9 8 8 10 2 2 5 5 3 2 3 6 9 5 4 4 4 5 5 6 5 6 6 6 6 7 6 6 7 7 9 15 17 17 16 16 15 12 11 10 11 11 11 12 13 13 14 15 14 14 16 16 16 16 15 15 15 16 17 17 16 16 17
6 6 6 6 6 7 6 7 7 6 6 5 6 8 7 7 6 6 5 7 6 8 9 9 6 9 11 11 0 3 2 2 2 6 9 4 5 4 4 5 6 5 6 6 5 6 7 6 5 5 6 6 7 7 8 9 10 14 13 13 12 12 11 12 13 14 15 15 15 15 15 16 15 15 16 16 16 16 16 17 17 17 17 17 18
6 7 7 7 7 7 6 7 7 7 6 5 6 7 6 7 7 7 8 5 4 6 8 8 5 8 6 5 7 9 3 5 3 11 9 2 3 5 3 5 6 5 6 6 5 7 7 6 6 5 6 6 5 6 6 8 10 14 12 12 12 12 12 13 13 15 15 16 16 16 15 15 16 17 16 16 16 16 18 18 18 18 18 18 18
7 6 6 6 6 6 5 6 7 6 5 5 7 7 7 7 7 7 7 7 6 6 7 7 6 9 7 5 5 4 7 3 10 13 3 3 3 5 3 5 5 7 7 7 6 7 6 5 6 6 6 5 4 4 5 5 11 13 14 12 11 12 12 13 14 15 15 16 16 16 16 16 16 17 17 17 16 17 18 18 20 20 19 19 18
6 6 7 6 5 5 5 6 7 7 5 6 6 7 6 6 7 6 7 7 8 5 5 6 7 6 3 6 5 3 3 9 12 8 1 9 8 3 4 5 6 8 7 5 5 6 6 6 6 6 6 6 5 5 4 5 4 5 8 12 12 11 12 13 14 15 15 15 15 16 16 16 17 17 18 17 18 19 19 18 17 18 18 18 18
6 6 7 8 7 7 7 7 7 7 5 6 6 6 6 7 6 6 6 6 6 6 5 5 5 4 5 2 2 4 8 9 7 6 6 10 4 3 5 6 6 8 6 5 6 7 5 7 7 7 6 5 5 5 4 4 5 5 6 7 12 12 13 14 14 14 14 13 14 15 16 17 18 17 17 17 18 19 18 18 17 17 17 16 18
6 5 6 7 6 6 6 6 6 7 5 6 6 6 6 6 6 6 6 6 6 5 7 6 4 2 3 3 5 4 6 6 5 10 12 1 4 7 6 4 6 7 6 5 6 5 5 6 7 7 6 4 5 4 3 4 9 10 14 13 13 13 12 13 15 16 15 14 13 14 15 17 17 17 18 18 18 18 17 18 17 17 17 16 16
5 6 6 6 7 6 6 6 6 6 5 6 6 6 6 5 6 6 5 5 5 5 6 5 6 6 6 5 5 5 4 5 5 7 9 13 11 5 4 6 7 5 4 6 6 5 7 7 7 6 5 5 4 3 3 4 4 5 7 14 14 14 14 14 14 15 16 16 15 15 14 13 14 15 17 16 16 16 17 16 15 16 16 17 17
4 6 6 6 7 6 6 6 6 6 6 6 5 6 6 6 6 6 6 6 5 6 5 5 5 6 6 5 5 4 5 5 6 3 7 10 12 9 11 8 6 4 5 5 4 4 7 7 6 6 5 4 4 3 4 4 4 5 8 15 15 15 15 15 14 14 15 16 17 16 16 15 15 15 16 18 18 17 16 16 16 16 16 16 17
5 5 5 6 6 6 6 6 6 6 7 6 6 6 6 6 6 6 6 6 5 5 5 5 5 4 5 6 6 7 6 4 3 6 7 7 10 12 12 14 13 8 6 5 6 7 7 6 6 5 5 4 4 3 3 3 4 5 9 17 16 16 16 16 15 15 16 16 17 17 17 17 17 17 17 18 19 19 17 17 17 17 18 17 18
5 6 5 6 6 7 6 6 6 7 7 6 6 6 6 6 6 5 5 6 5 5 5 5 4 5 5 5 5 5 6 7 8 7 7 8 11 11 11 10 11 13 7 8 7 7 6 5 5 5 4 4 3 4 3 3 5 9 16 15 16 16 17 16 16 16 16 16 17 17 18 18 18 18 18 19 19 20 19 19 19 19 19 19 19
5 6 6 7 7 6 6 5 6 6 6 6 5 5 5 5 5 5 5 5 4 5 4 5 5 5 5 4 5 5 5 5 6 6 7 8 9 11 11 11 10 7 8 8 8 6 5 5 5 4 4 3 3 2 3 3 5 15 12 14 16 17 17 17 17 17 17 17 17 17 18 18 19 19 19 20 20 20 20 20 21 21 21 20 20
8 7 7 8 7 7 7 6 6 6 6 6 5 6 5 5 5 5 5 6 5 5 5 6 5 5 5 5 5 5 5 5 5 5 6 7 8 10 10 9 11 11 8 7 6 6 6 5 4 5 5 4 4 3 4 6 5 12 15 10 17 17 18 17 17 17 18 17 18 18 18 18 19 19 19 20 20 21 20 20 21 22 22 21 21
7 7 7 7 7 6 6 6 6 6 6 6 6 5 5 5 5 5 6 5 5 5 5 5 5 5 5 5 5 5 5 5 5 5 6 7 8 8 11 10 10 11 9 7 6 7 3 3 4 4 5 6 5 4 5 7 6 12 17 11 11 17 18 17 18 18 18 18 18 18 19 19 19 19 19 20 20 20 21 21 20 21 22 22 23
6 6 6 7 6 6 6 6 6 6 5 5 6 5 5 5 5 5 5 5 5 6 6 6 6 6 7 6 6 5 5 5 4 5 5 5 6 8 9 12 12 9 10 8 6 3 6 5 5 4 5 5 5 6 6 5 8 15 16 8 6 15 18 19 18 18 18 18 18 18 19 19 20 19 20 20 21 21 21 22 22 23 23 23 23
5 5 5 6 6 6 5 6 5 5 5 6 6 5 6 6 5 5 6 4 6 8 6 6 6 7 7 6 5 6 5 5 5 5 5 5 6 6 6 8 11 12 10 10 9 7 3 6 4 4 5 5 6 5 8 10 7 14 14 7 6 7 14 19 18 18 18 18 18 18 19 20 20 20 20 21 20 21 21 22 22 23 24 23 23
5 5 5 6 5 6 6 6 5 5 5 6 6 6 6 5 6 6 6 6 6 7 6 6 6 6 5 7 6 7 6 6 6 6 6 6 6 6 6 7 8 10 11 12 10 10 7 3 6 5 5 7 7 6 6 6 9 12 7 6 6 6 13 18 18 17 18 18 18 19 19 19 19 21 21 21 21 22 21 23 23 24 23 24 23
5 6 5 6 5 7 5 6 5 5 5 6 6 6 6 6 6 6 5 6 7 7 7 6 7 6 6 6 6 6 7 6 6 7 7 7 6 6 6 6 6 8 9 10 12 8 9 5 5 7 5 8 8 7 5 7 11 14 8 7 7 7 15 18 18 18 18 18 18 19 19 20 20 20 20 21 22 22 23 23 25 24 23 23 24
5 5 5 5 6 6 5 5 5 6 5 5 6 6 5 6 6 6 7 6 6 7 7 7 7 6 7 8 7 7 6 7 7 7 7 7 8 6 6 6 7 8 9 9 12 7 4 9 7 5 7 8 8 8 8 7 9 12 8 7 7 12 19 14 19 19 19 19 18 19 19 20 20 21 21 21 22 22 23 24 24 25 25 24 23
5 5 5 6 6 6 6 5 5 5 6 5 5 5 6 5 5 6 7 6 7 7 7 7 6 6 8 8 8 7 7 6 7 7 7 8 8 8 7 7 8 8 9 10 10 13 7 8 9 8 7 8 8 9 9 8 8 15 8 8 9 14 10 7 14 19 19 20 19 19 19 19 20 20 21 21 22 22 22 23 24 24 25 24 23
6 6 6 6 6 6 6 6 6 6 6 6 5 5 5 6 6 7 8 7 7 8 7 8 8 7 8 8 9 9 9 9 9 9 9 9 8 8 8 8 8 8 9 9 10 13 11 6 8 8 8 6 7 6 9 9 9 9 9 8 8 7 8 8 8 14 18 19 19 19 19 19 19 20 20 20 21 22 22 22 23 23 23 23 23
5 6 6 6 6 6 6 6 6 5 6 6 6 5 6 6 7 5 7 8 7 8 8 8 8 7 7 8 9 8 7 8 9 10 9 9 9 9 9 8 8 9 9 9 10 11 13 10 9 7 7 5 8 6 8 9 10 9 10 9 7 7 7 7 7 7 16 18 18 18 18 18 18 18 19 19 20 20 21 21 21 21 22 22 23
5 5 6 6 6 6 6 6 5 6 6 6 6 6 6 7 8 8 8 8 8 9 9 8 8 8 8 8 9 8 6 8 9 9 9 9 9 9 10 9 9 10 10 10 10 10 11 12 10 11 9 6 7 9 8 8 9 9 10 10 8 7 6 7 7 6 12 17 18 18 18 19 19 20 19 20 20 20 20 20 21 21 21 22 23
6 6 5 6 6 6 6 6 6 6 6 6 7 7 7 8 8 9 10 9 8 9 8 9 8 7 8 10 9 8 8 9 9 9 9 9 9 9 10 10 9 9 9 9 10 10 11 13 11 10 10 12 9 7 7 8 9 9 8 9 8 8 8 7 6 5 7 14 17 19 20 20 20 20 20 20 20 21 21 21 21 21 22 22 22
6 6 6 6 6 6 6 6 7 7 7 7 7 8 8 8 9 9 10 9 8 8 7 6 8 8 9 9 10 10 10 11 10 10 10 12 10 10 9 9 8 8 8 9 10 10 11 12 13 11 11 10 9 9 8 8 8 8 7 7 7 7 8 6 4 4 9 16 18 19 20 21 21 20 21 21 21 21 21 21 21 22 22 22 23
6 6 6 6 6 7 6 7 6 7 7 7 8 8 9 9 9 9 10 9 6 5 8 8 7 8 9 10 10 10 10 11 11 12 12 11 10 10 11 10 9 9 10 10 9 11 12 12 12 13 8 10 9 8 8 7 8 8 9 7 6 6 6 7 6 6 5 5 5 7 11 14 16 21 21 21 21 21 21 21 21 21 21 22 22
6 6 6 6 6 6 7 6 6 7 7 7 8 9 9 10 9 8 10 7 7 7 7 8 8 9 10 10 10 10 11 12 12 11 11 12 10 11 10 9 9 10 10 10 10 11 9 12 11 10 10 8 8 10 7 5 6 6 9 10 10 7 7 7 8 6 6 7 10 16 15 15 16 14 18 21 21 22 22 21 21 22 22 23 23
5 6 6 7 6 6 6 6 6 6 7 7 8 9 9 8 9 11 9 7 8 8 7 9 9 10 11 11 10 11 11 10 10 11 10 10 9 10 8 9 10 10 9 9 10 11 10 9 8 9 8 9 8 7 7 7 8 7 6 9 12 13 10 7 7 9 7 8 9 7 8 10 10 14 18 19 21 22 22 21 23 23 24 24 23
4 5 6 6 6 6 5 5 6 6 6 6 6 8 10 12 10 11 8 7 9 10 10 10 10 11 11 10 10 10 12 15 17 15 15 14 10 10 10 10 11 11 10 9 8 9 9 9 10 10 10 11 11 11 10 9 10 11 10 10 12 11 10 10 8 6 7 9 9 10 9 5 6 6 6 8 9 12 14 20 18 23 23 23 24
4 5 5 5 5 6 7 6 5 5 5 4 10 17 15 11 10 9 6 7 9 9 10 10 11 11 11 10 10 16 16 15 15 17 18 19 20 16 13 12 12 10 9 10 9 8 9 9 9 10 12 11 11 11 11 11 10 12 12 11 11 11 12 11 9 5 6 7 8 10 9 5 6 9 9 11 10 9 8 9 9 13 19 24 24
5 6 5 6 6 5 6 6 7 6 6 6 15 17 17 19 12 7 5 9 11 10 10 11 11 11 11 11 10 12 12 12 12 17 16 19 20 23 24 20 16 12 10 11 10 9 9 9 9 9 9 11 12 11 11 11 10 9 10 10 11 13 12 13 14 8 3 5 9 11 13 6 6 11 12 11 9 8 8 9 17 21 23 24 24
6 5 5 6 6 6 5 5 5 6 6 11 16 17 18 18 17 9 7 9 9 10 10 10 9 10 11 11 9 8 9 12 13 12 14 18 21 21 18 19 18 16 17 13 11 9 8 8 8 8 9 9 10 10 10 10 11 12 11 11 12 13 13 13 11 11 7 7 11 12 16 9 6 10 13 10 7 7 9 15 22 23 24 24 24
5 6 6 7 7 7 6 7 7 6 5 12 16 18 18 18 19 13 8 9 10 10 10 10 9 9 10 10 10 9 9 15 12 12 13 14 15 16 17 16 13 16 18 18 15 9 9 8 8 9 8 9 11 10 10 12 12 13 12 12 11 11 11 12 12 11 11 9 11 13 16 12 7 11 12 10 9 9 11 15 21 22 23 23 24
6 6 6 7 7 7 7 7 7 6 6 12 18 18 18 19 19 14 7 10 9 9 10 9 9 10 10 10 11 11 10 11 12 13 13 12 9 9 10 8 7 12 15 16 16 15 10 7 9 10 11 10 12 12 12 12 12 11 11 11 11 11 12 12 14 14 12 8 11 12 15 12 6 9 11 9 8 9 8 13 21 23 23 24 24
6 6 7 8 7 7 7 6 6 6 6 16 17 18 18 19 19 13 7 9 9 9 8 8 9 10 10 11 11 11 11 11 12 17 14 11 9 9 8 7 8 8 10 10 8 7 9 10 11 11 12 11 11 12 11 10 10 10 10 11 12 12 13 12 11 9 9 6 9 9 13 11 6 10 10 8 8 9 8 14 20 22 23 24 25
4 4 4 5 7 8 8 7 7 8 7 16 18 19 20 20 19 10 8 9 9 9 9 10 10 9 10 10 10 9 11 12 17 24 20 14 9 10 8 8 8 9 8 7 11 14 13 11 10 11 10 11 14 12 12 11 10 9 10 9 8 9 9 9 9 6 7 6 7 9 11 12 8 10 11 8 9 11 9 9 17 24 24 24 24
5 5 4 6 6 7 8 7 8 8 8 14 20 20 20 22 15 7 9 9 9 10 10 9 7 8 8 9 9 9 11 12 19 24 22 19 9 9 9 10 10 9 8 6 9 14 15 17 17 17 17 17 17 17 17 17 13 11 8 7 7 7 8 10 10 7 8 8 7 8 11 13 9 9 11 10 10 10 10 9 9 15 21 22 22
6 5 5 6 6 6 7 7 7 8 8 12 20 20 22 22 18 9 8 8 9 10 10 9 8 7 9 14 11 10 12 11 21 22 22 16 9 9 10 12 10 10 10 7 7 8 14 15 16 16 17 17 17 18 17 17 17 12 7 8 8 7 9 10 11 11 10 9 10 7 8 8 8 8 10 10 9 7 8 9 10 11 17 17 22
5 5 5 5 6 6 5 6 8 7 7 10 17 20 22 21 17 9 8 8 9 10 10 9 8 8 8 8 14 15 15 17 22 21 21 16 8 8 10 10 10 12 10 9 11 12 11 10 9 9 9 11 10 8 10 17 16 13 7 8 7 7 8 9 10 11 11 6 4 7 10 9 9 8 8 9 10 8 5 7 8 8 9 10 11
Wind_Direction
355 348 339 353 348 352 349 346 341 342 345 344 351 342 343 341 340 338 336 332 329 325 328 329 322 318 319 314 319 316 316 315 312 312 306 304 306 307 319 322 320 317 315 313 310 307 303 300 297 295 294 292 291 285 284 280 277 277 269 262 266 278 280 281 277 266 258 264 277 271 240 245 245 249 249 252 262 264 273 262 268 299 303 292 294
354 351 357 351 348 346 345 343 342 340 347 341 340 340 337 337 340 337 336 332 329 325 331 320 318 317 313 318 317 313 310 310 309 304 300 300 298 300 311 318 319 318 315 313 310 307 303 298 296 293 291 287 287 286 279 273 274 272 269 261 261 267 269 281 285 281 269 275 262 251 250 247 256 259 262 262 274 255 241 247 237 221 284 303 297
3 359 355 350 345 346 342 337 344 341 339 335 333 338 336 335 334 332 332 327 324 323 320 317 313 315 313 316 310 310 309 304 299 300 301 297 296 295 303 311 315 316 315 313 310 307 304 300 297 293 289 283 281 283 278 273 270 269 266 265 261 252 247 271 290 276 270 263 265 258 251 244 249 250 245 266 264 260 261 297 316 291 252 245 288
7 358 356 349 348 346 340 344 340 336 336 335 336 338 336 330 328 325 323 316 321 321 316 316 316 310 315 314 310 310 306 301 299 297 294 296 297 304 299 303 312 314 317 317 314 310 304 300 295 293 289 284 279 278 276 272 269 267 263 265 260 254 258 261 281 298 307 295 268 263 286 291 281 246 236 242 265 291 288 266 254 267 304 294 247
2 359 352 347 343 343 342 342 338 335 335 338 338 337 335 334 332 333 325 331 329 326 325 320 316 318 319 313 311 308 302 300 295 296 300 302 303 298 299 303 300 311 316 321 321 318 312 304 298 294 290 286 280 275 270 266 267 265 261 267 275 273 257 258 258 283 295 289 304 269 250 253 266 321 260 238 233 242 253 284 303 300 264 255 294
3 356 352 346 342 344 343 343 340 339 339 343 344 340 339 339 338 341 338 339 334 330 332 330 322 316 314 313 310 302 302 299 298 300 302 302 298 299 299 298 307 304 310 320 330 332 328 318 306 293 290 286 280 277 273 268 265 261 262 251 252 263 258 252 276 278 282 294 283 280 287 270 250 246 248 357 289 277 265 266 279 288 299 289 262
4 357 348 343 343 345 347 342 339 341 345 342 342 340 340 340 340 342 333 332 330 330 332 322 321 321 319 318 310 306 300 298 305 305 303 298 301 302 305 305 309 317 311 331 335 340 349 347 334 312 299 291 284 287 274 273 267 261 255 252 257 282 270 261 259 264 290 281 266 286 277 276 291 270 257 269 263 237 241 258 258 259 262 266 279
2 354 346 340 348 349 346 344 346 346 344 341 344 344 341 340 344 342 339 337 336 332 333 324 320 314 314 311 307 304 300 305 306 306 298 305 309 312 312 318 317 322 355 342 344 346 3 11 15 15 5 339 324 339 326 274 275 272 261 255 248 253 259 261 269 277 278 288 295 277 256 270 279 296 270 259 299 308 270 255 257 267 269 280 287
359 352 348 340 356 354 346 347 345 346 341 340 343 342 344 348 344 345 341 332 333 330 331 329 320 314 310 309 305 304 300 303 303 295 322 327 320 319 329 337 349 1 0 2 355 357 1 11 15 13 14 18 18 3 332 297 288 274 273 278 272 260 268 274 273 288 285 282 276 281 297 292 284 258 263 273 277 274 269 275 291 283 283 277 273
358 351 349 347 359 352 344 348 347 344 341 341 341 337 352 354 341 341 343 340 337 336 333 328 319 315 313 308 306 299 298 300 290 337 351 335 336 339 344 346 2 14 16 15 12 1 3 7 10 9 7 10 13 15 8 4 0 360 348 308 261 248 255 271 287 285 289 284 277 288 291 279 277 287 276 276 282 283 288 286 264 250 252 264 274
356 351 353 353 357 354 350 351 347 339 340 343 345 354 359 354 346 339 346 345 336 333 329 320 318 312 309 309 304 294 297 287 343 50 356 356 347 358 359 14 25 28 22 22 13 8 9 5 2 0 359 4 9 9 7 8 5 2 348 341 345 313 279 291 303 290 286 284 285 281 277 276 271 267 265 265 267 276 276 271 279 279 268 260 256
360 351 356 357 360 353 350 350 347 342 345 352 354 1 359 351 350 346 342 344 337 333 331 326 311 302 307 311 290 296 294 341 80 27 13 357 356 0 16 25 35 26 28 17 9 14 13 6 1 355 355 359 4 6 3 5 1 358 359 351 340 323 296 292 286 286 283 285 284 283 277 268 274 268 268 272 275 263 264 268 272 272 268 269 274
0 352 3 358 355 348 349 352 346 346 351 354 360 358 359 350 342 343 345 344 341 349 336 333 318 332 305 271 324 309 302 85 71 31 9 345 353 8 18 31 27 26 21 11 10 12 9 5 357 354 353 351 354 359 360 1 355 351 353 355 343 327 322 312 298 299 297 294 292 286 284 285 276 271 268 266 266 266 267 271 269 266 269 277 278
353 355 1 358 357 356 358 353 352 346 357 348 6 359 352 350 345 342 352 343 339 343 342 348 0 0 329 336 226 330 323 65 45 15 355 342 350 14 24 32 21 22 13 9 12 10 0 356 354 354 351 351 349 346 351 353 337 344 349 343 338 325 313 301 296 294 292 292 288 286 286 282 273 268 268 267 266 266 266 264 264 266 268 270 267
357 0 6 0 359 356 357 350 349 346 347 357 2 358 355 350 352 349 342 346 341 338 351 7 333 326 289 295 335 356 345 2 334 341 340 314 10 10 26 17 20 18 9 4 8 3 353 350 346 350 350 350 342 341 343 342 336 349 346 340 329 319 306 299 294 289 287 284 277 271 272 273 277 277 270 266 266 268 265 263 262 260 259 261 266
360 3 360 360 356 354 352 349 346 342 344 5 2 355 351 350 349 353 346 341 353 347 350 356 353 345 2 359 302 328 320 52 346 314 316 314 21 356 2 14 16 7 8 6 0 354 343 342 342 343 341 337 335 336 335 325 346 352 345 337 322 309 301 294 288 284 284 281 281 282 275 270 272 272 273 274 278 278 278 281 282 275 273 272 271
356 0 360 358 355 355 2 350 348 343 346 17 3 350 344 345 341 352 352 340 343 343 338 359 358 3 21 341 337 339 346 327 331 297 6 344 342 1 351 18 13 6 359 351 352 345 335 337 334 337 332 330 333 335 334 336 328 340 327 321 315 309 299 288 283 279 277 275 281 281 278 276 272 270 270 269 267 269 274 276 275 277 280 281 282
356 360 359 356 357 359 2 353 349 345 347 18 352 343 347 347 347 349 339 341 340 330 339 349 355 349 14 33 272 292 319 323 332 308 351 294 268 313 6 10 7 356 345 339 346 338 337 330 331 330 327 328 332 332 342 344 355 345 319 315 337 326 317 309 298 280 272 275 277 277 278 277 277 278 276 277 279 281 281 277 275 278 282 285 285
356 359 356 354 356 359 360 352 345 338 347 10 352 348 343 341 345 343 337 339 341 336 342 334 342 344 2 325 317 309 310 322 313 317 318 29 17 332 336 352 352 343 331 337 335 328 325 327 324 322 322 329 333 335 350 357 2 0 347 342 338 334 324 319 313 309 305 298 293 290 287 278 272 274 279 283 282 283 285 288 289 291 287 286 287
350 357 355 353 356 358 357 349 348 336 359 3 346 338 338 336 341 335 328 338 336 332 336 335 351 329 343 331 322 316 291 282 269 285 292 303 309 309 288 333 336 324 316 329 326 323 324 322 319 317 323 328 328 340 347 354 342 343 327 335 338 332 328 321 314 307 305 304 305 306 312 313 296 290 290 290 294 295 295 297 295 292 292 288 288
349 356 354 354 354 353 353 346 348 340 359 352 342 340 338 339 339 338 340 339 336 341 327 340 339 331 332 326 322 309 313 284 277 286 305 307 301 319 321 320 307 303 318 315 304 314 317 309 311 317 320 325 322 329 348 345 339 337 332 336 335 332 328 323 315 311 306 305 306 308 307 305 302 299 295 296 299 296 293 293 292 290 287 286 286
353 355 352 354 348 354 349 346 348 349 356 342 339 340 341 341 336 332 334 337 330 330 341 339 329 322 327 318 328 329 325 328 329 328 304 282 295 315 317 324 323 327 325 318 324 321 305 302 306 309 318 320 324 326 340 334 335 328 330 337 334 332 329 324 318 313 308 305 304 304 303 300 298 296 295 294 293 292 293 293 292 290 288 286 286
346 350 352 352 350 356 346 348 351 353 344 343 340 341 337 337 331 326 333 336 331 332 338 328 326 322 321 325 324 326 322 319 313 319 315 306 308 306 310 310 309 314 326 327 321 308 297 299 299 310 320 321 312 321 323 321 341 333 337 335 333 331 327 323 318 314 307 304 302 300 297 295 292 291 291 291 290 290 291 291 289 286 286 286 286
347 348 350 353 353 347 344 351 350 343 345 341 335 338 335 333 330 332 332 328 324 335 325 322 326 319 311 313 308 300 297 291 297 302 306 306 306 305 309 313 307 302 315 313 306 288 299 303 303 313 319 320 309 312 315 329 320 331 331 331 331 328 325 320 317 313 309 305 302 298 295 292 289 289 289 287 287 288 289 289 288 286 285 285 286
352 347 349 354 352 346 349 354 350 344 341 341 335 335 336 332 330 329 325 327 327 323 326 319 315 312 311 306 293 289 284 279 284 288 291 296 305 307 310 315 309 313 317 322 316 322 308 300 318 324 331 324 315 313 318 328 321 321 325 326 327 326 323 320 316 313 309 304 300 295 293 291 287 288 288 287 286 286 285 285 287 287 285 285 287
340 340 343 349 346 342 338 347 341 335 340 338 338 336 335 331 325 326 327 320 318 322 317 313 308 303 301 291 292 284 283 284 279 280 287 299 305 305 313 314 310 311 316 319 322 320 305 323 318 321 322 317 317 315 318 308 305 309 317 321 319 317 319 319 316 312 309 305 300 294 290 287 284 285 288 285 283 283 284 283 284 282 280 279 279
335 333 340 343 339 334 344 343 334 336 333 332 335 332 332 328 322 323 320 315 316 323 317 316 310 307 303 297 296 288 292 277 264 268 268 272 284 299 308 316 318 317 320 323 310 287 296 310 305 314 293 289 283 294 296 291 297 306 311 313 300 305 311 313 314 310 306 303 298 296 295 293 293 287 282 282 282 279 279 280 280 278 276 277 276
328 336 340 340 334 329 341 333 331 332 334 333 331 334 332 328 323 323 318 320 318 317 313 302 297 302 303 300 296 287 289 286 277 273 266 266 274 280 292 306 319 319 324 323 324 317 320 308 299 268 278 275 277 278 285 296 295 295 305 298 286 287 297 305 310 308 306 302 300 298 297 297 294 291 291 292 286 282 283 280 277 276 277 274 276
332 339 340 334 328 335 338 335 332 333 333 331 329 329 329 325 320 318 317 319 314 307 303 308 307 306 301 300 299 298 291 292 289 282 279 278 273 272 272 281 298 302 313 317 318 318 322 322 316 303 284 285 288 284 286 281 282 292 290 290 288 284 288 300 308 307 305 302 301 299 297 294 290 291 289 286 284 284 281 278 277 277 275 276 276
343 339 336 330 327 341 335 334 331 332 333 328 328 327 327 324 318 311 306 308 309 307 308 307 307 302 299 302 303 293 293 292 290 287 285 278 271 267 270 268 271 282 286 296 298 303 304 297 281 297 291 292 292 292 286 286 286 297 293 288 284 275 285 298 306 306 305 303 302 299 295 293 292 289 287 287 288 288 287 287 287 285 284 282 283
342 336 333 334 335 337 338 332 333 334 328 329 329 325 324 318 318 311 312 306 305 301 300 304 298 301 298 298 298 293 289 286 283 281 279 281 288 278 262 258 261 264 270 277 292 284 275 297 294 261 280 291 293 293 292 288 288 292 288 283 281 280 289 294 295 299 302 303 301 298 296 294 292 290 289 291 290 286 289 291 291 290 290 291 292
340 337 334 338 338 337 337 330 332 333 328 327 329 323 320 311 307 303 300 292 294 295 293 290 293 293 294 289 287 287 287 281 281 282 282 287 287 279 268 263 268 266 266 272 270 283 283 283 287 286 274 283 288 291 289 289 286 291 283 278 275 282 287 277 280 284 289 297 301 300 298 296 293 291 292 289 287 290 290 291 297 300 299 296 296
342 340 341 338 337 334 330 333 334 331 331 329 327 323 314 310 306 305 303 292 293 293 290 289 289 292 291 293 290 290 293 304 308 302 291 286 286 274 267 268 267 266 266 266 268 279 284 271 276 288 291 285 286 277 283 285 287 284 280 275 273 270 271 269 268 276 282 287 296 300 298 296 294 293 291 293 294 295 296 294 291 294 298 298 296
342 339 339 338 335 330 331 331 329 329 327 327 320 317 310 301 297 295 293 294 295 292 291 292 298 299 296 294 294 297 312 307 304 305 305 300 291 281 271 270 267 267 264 266 268 275 288 295 295 294 289 279 280 274 275 283 282 284 284 280 270 259 264 264 266 267 275 284 294 298 298 296 297 296 296 295 294 292 291 292 290 287 284 285 286
342 342 336 338 332 330 328 329 331 330 331 327 321 313 300 301 302 299 292 296 295 294 300 303 302 300 297 305 311 319 314 309 306 303 299 295 294 288 280 275 273 270 270 265 272 278 283 295 302 303 301 284 271 286 283 275 275 276 280 280 277 272 259 259 263 260 272 283 297 299 299 299 298 297 297 297 295 293 291 290 289 288 286 283 282
344 338 337 337 331 329 327 329 333 330 332 327 317 310 300 302 300 295 292 294 291 289 299 305 302 308 321 322 319 314 310 308 308 301 296 293 291 292 285 278 275 279 278 280 280 283 290 296 302 301 297 296 286 273 272 275 277 276 269 270 270 270 270 266 261 266 264 286 300 302 300 299 298 296 296 294 294 292 291 289 288 286 284 282 282
341 332 331 332 326 329 331 330 330 332 330 321 310 306 301 296 299 291 283 281 291 295 290 292 322 328 321 321 321 322 319 311 298 293 298 300 299 293 288 286 284 281 290 298 296 290 290 291 296 291 287 282 284 282 276 279 282 273 270 277 282 283 283 281 286 277 287 296 296 296 296 296 296 295 295 294 292 289 287 285 284 283 281 281 281
340 334 329 329 330 326 324 324 321 324 322 318 311 301 300 293 292 289 278 273 275 317 338 331 323 325 328 323 324 320 316 303 301 303 302 309 319 319 320 317 313 308 304 296 289 291 292 292 289 291 285 290 287 285 284 279 290 301 305 295 290 291 301 307 295 287 276 273 272 275 280 286 287 291 293 291 289 286 286 287 286 285 285 284 284
337 334 330 328 326 324 322 322 318 322 318 311 302 295 291 294 286 295 322 352 349 331 333 331 331 332 325 322 318 313 306 306 307 310 322 322 320 318 312 307 301 296 294 286 287 285 271 276 276 274 278 272 277 291 303 299 293 300 310 315 309 308 297 295 297 287 281 278 272 280 284 289 292 293 292 290 288 288 289 289 287 286 284 284 284
335 331 329 323 320 320 319 319 315 314 313 311 306 299 291 295 329 321 333 351 339 340 331 333 333 328 327 320 316 311 310 314 323 321 323 322 315 311 309 305 300 295 290 291 295 298 287 282 284 294 297 306 311 309 314 317 315 310 315 318 310 309 305 296 291 302 300 293 292 286 273 279 275 274 280 282 283 285 288 288 287 286 284 283 283
327 321 317 316 316 317 315 314 315 313 311 307 304 305 321 341 335 326 344 343 344 337 335 335 332 328 322 314 322 328 327 325 325 329 325 323 320 314 312 310 311 311 306 306 317 322 325 328 327 329 326 322 319 318 319 321 322 320 318 309 299 300 301 306 308 309 302 305 303 294 289 285 291 288 284 284 276 285 284 283 283 283 284 285 284
322 319 317 314 314 315 319 319 318 316 312 303 307 330 346 340 333 326 342 337 343 332 335 334 328 327 329 331 331 328 327 330 336 331 328 322 319 317 313 311 308 311 325 333 330 333 328 324 324 324 318 314 315 317 318 317 314 311 308 311 309 312 312 304 300 294 306 293 291 297 293 303 304 295 284 279 283 284 277 278 269 274 278 279 279
332 329 323 326 327 322 319 320 323 321 318 302 327 346 344 345 339 334 342 341 337 337 335 331 323 329 334 335 331 333 333 333 328 325 316 308 305 305 308 322 336 336 336 332 326 327 324 316 314 310 309 309 313 318 317 320 324 329 326 318 311 310 308 311 309 315 292 323 309 301 293 303 304 289 284 278 282 277 270 268 276 282 282 281 280
338 329 333 330 322 323 321 317 315 316 313 320 339 346 346 345 345 351 353 335 338 335 334 326 328 331 335 336 334 336 332 329 328 320 310 307 306 307 333 337 333 339 334 324 321 320 317 314 306 306 313 319 325 328 323 326 322 316 310 307 305 305 304 300 299 302 318 329 313 302 291 294 274 276 281 282 282 276 276 282 287 288 288 286 284
325 340 335 331 328 326 324 324 324 321 316 323 346 349 348 347 346 356 347 333 338 336 330 327 326 334 337 335 335 332 329 332 329 315 311 304 304 334 343 338 342 338 329 325 323 320 316 311 328 327 323 320 315 314 322 317 314 306 306 303 302 300 299 296 296 302 308 320 306 296 292 293 296 281 278 285 286 282 281 282 285 288 287 287 284
338 334 333 330 326 325 325 322 318 316 317 336 351 350 350 348 348 356 333 335 327 326 321 324 336 339 339 337 334 329 329 336 324 313 311 307 334 347 342 344 347 332 327 324 319 317 334 346 328 316 316 318 305 308 308 306 303 300 302 299 305 302 299 293 299 299 303 315 298 297 288 289 294 285 282 282 276 274 271 278 286 290 290 290 289
330 336 335 334 328 321 320 319 316 321 316 344 352 352 352 351 354 352 341 337 330 327 326 334 339 339 343 338 331 327 332 335 320 314 318 333 345 345 338 349 333 322 306 303 310 340 345 329 316 306 307 307 301 298 299 302 301 302 304 302 303 301 300 302 296 295 297 286 275 276 275 291 294 286 283 291 290 282 280 286 291 293 293 292 291
321 324 327 324 322 321 320 320 325 330 327 348 353 353 353 352 356 352 345 339 335 334 338 342 342 344 343 334 327 332 338 330 315 321 338 342 347 340 341 337 323 304 293 314 341 341 333 324 318 313 309 309 309 309 312 313 313 310 302 303 311 309 307 299 289 297 290 299 294 294 289 291 303 294 291 288 292 293 298 293 296 294 293 293 292
317 326 331 326 316 314 318 322 330 329 330 343 352 353 354 353 355 350 348 345 339 338 340 342 345 343 338 327 331 339 336 325 322 336 341 346 343 342 343 334 316 318 332 351 350 339 334 328 326 324 322 323 324 323 324 323 317 318 319 316 310 315 303 300 299 308 303 309 292 280 284 287 291 292 299 300 296 289 287 282 278 289 294 295 296
323 323 325 319 314 312 312 318 324 323 324 335 348 352 354 353 355 351 345 339 339 342 340 341 342 338 332 335 342 344 334 324 331 342 344 348 347 350 346 323 325 339 338 351 340 335 333 330 327 328 328 328 331 329 326 324 324 329 327 309 304 301 294 298 298 305 302 298 291 284 281 282 305 302 293 288 279 254 267 276 287 289 294 294 294
306 308 313 313 310 309 305 306 306 315 322 331 343 351 352 351 353 351 347 335 341 344 344 338 338 336 329 336 343 342 337 333 340 344 347 350 353 1 337 316 334 339 345 353 346 335 335 334 329 328 323 326 321 315 313 322 325 324 311 295 298 298 294 295 295 304 304 289 280 320 299 290 293 289 296 300 292 276 243 271 281 281 283 282 280